| time (UTC) | temp C | wind direction | speed KPH | gust KPH | rain 1hr cm | rain 24hr cm | rain mn cm | humidity % | barometer mb |
| 20260902102732 | 25 | 317 | 0.0 | 1.6 | 0.00 | 0.28 | 0.00 | 99 | 1015.6 |
| 20260902102238 | 24 | 315 | 0.0 | 0.0 | 0.00 | 0.28 | 0.00 | 99 | 1015.3 |
| 20260902101735 | 24 | 312 | 0.0 | 0.0 | 0.00 | 0.28 | 0.00 | 99 | 1015.4 |
| 20260902101236 | 24 | 315 | 0.0 | 0.0 | 0.00 | 0.28 | 0.00 | 99 | 1015.2 |
| 20260902100734 | 24 | 319 | 0.0 | 0.0 | 0.00 | 0.28 | 0.00 | 99 | 1015.5 |
| 20260902100231 | 24 | 318 | 0.0 | 0.0 | 0.00 | 0.28 | 0.00 | 99 | 1015.3 |
| 20260902095734 | 25 | 313 | 0.0 | 0.0 | 0.00 | 0.28 | 0.00 | 99 | 1015.4 |
| 20260902095234 | 25 | 316 | 0.0 | 0.0 | 0.00 | 0.28 | 0.00 | 99 | 1015.1 |
| 20260902095033 | 24 | 320 | 0.0 | 0.0 | 0.00 | 0.28 | 0.00 | 99 | 1015.2 |
| 20260902094233 | 24 | 320 | 0.0 | 0.0 | 0.00 | 0.28 | 0.00 | 99 | 1015.4 |
| 20260902093732 | 25 | 321 | 0.0 | 0.0 | 0.00 | 0.28 | 0.00 | 99 | 1015.2 |
| 20260902093223 | 25 | 316 | 0.0 | 0.0 | 0.00 | 0.28 | 0.00 | 99 | 1015.1 |
| 20260902092723 | 25 | 317 | 0.0 | 0.0 | 0.00 | 0.28 | 0.00 | 99 | 1014.9 |
| 20260902092218 | 25 | 317 | 0.0 | 0.0 | 0.00 | 0.28 | 0.00 | 99 | 1015.0 |
| 20260902091717 | 24 | 301 | 0.0 | 0.0 | 0.00 | 0.28 | 0.00 | 99 | 1014.9 |
| 20260902091212 | 25 | 314 | 0.0 | 0.0 | 0.00 | 0.28 | 0.00 | 99 | 1014.6 |
| 20260902090712 | 24 | 318 | 0.0 | 0.0 | 0.00 | 0.28 | 0.00 | 99 | 1014.9 |
| 20260902090209 | 25 | 313 | 0.0 | 0.0 | 0.00 | 0.28 | 0.00 | 99 | 1014.7 |
| 20260902085708 | 24 | 320 | 0.0 | 0.0 | 0.00 | 0.28 | 0.00 | 99 | 1014.7 |
| 20260902085209 | 24 | 316 | 0.0 | 0.0 | 0.00 | 0.28 | 0.00 | 99 | 1014.5 |
| 20260902084709 | 25 | 316 | 0.0 | 0.0 | 0.00 | 0.28 | 0.00 | 99 | 1014.6 |
| 20260902084208 | 25 | 321 | 0.0 | 1.6 | 0.00 | 0.28 | 0.00 | 99 | 1014.6 |
| 20260902083708 | 25 | 313 | 0.0 | 1.6 | 0.00 | 0.28 | 0.00 | 99 | 1014.6 |
| 20260902083525 | 25 | 312 | 0.0 | 0.0 | 0.00 | 0.28 | 0.00 | 99 | 1014.5 |
| 20260902082708 | 25 | 315 | 0.0 | 0.0 | 0.00 | 0.28 | 0.00 | 99 | 1014.8 |
| 20260902082210 | 25 | 316 | 0.0 | 1.6 | 0.00 | 0.28 | 0.00 | 99 | 1014.6 |
| 20260902081707 | 25 | 315 | 0.0 | 1.6 | 0.00 | 0.28 | 0.00 | 99 | 1014.7 |
| 20260902081205 | 25 | 320 | 0.0 | 1.6 | 0.00 | 0.28 | 0.00 | 99 | 1014.6 |
| 20260902080705 | 25 | 316 | 0.0 | 1.6 | 0.00 | 0.28 | 0.00 | 99 | 1014.7 |
| 20260902080208 | 24 | 316 | 0.0 | 1.6 | 0.00 | 0.28 | 0.00 | 99 | 1014.7 |
| 20260902075707 | 24 | 314 | 0.0 | 1.6 | 0.00 | 0.28 | 0.00 | 99 | 1014.3 |
| 20260902075205 | 24 | 318 | 0.0 | 0.0 | 0.00 | 0.28 | 0.00 | 99 | 1014.9 |
| 20260902074707 | 25 | 318 | 0.0 | 0.0 | 0.00 | 0.28 | 0.00 | 99 | 1014.9 |
| 20260902074207 | 24 | 316 | 0.0 | 0.0 | 0.00 | 0.28 | 0.00 | 99 | 1014.7 |
| 20260902073707 | 25 | 316 | 0.0 | 1.6 | 0.00 | 0.28 | 0.00 | 99 | 1014.9 |
| 20260902073206 | 25 | 316 | 0.0 | 1.6 | 0.00 | 0.28 | 0.00 | 99 | 1014.7 |
| 20260902072710 | 25 | 319 | 0.0 | 0.0 | 0.00 | 0.28 | 0.00 | 99 | 1014.8 |
| 20260902072208 | 25 | 318 | 0.0 | 0.0 | 0.00 | 0.28 | 0.00 | 99 | 1015.1 |
| 20260902071711 | 25 | 319 | 0.0 | 0.0 | 0.00 | 0.28 | 0.00 | 99 | 1015.0 |
| 20260902071206 | 25 | 318 | 0.0 | 0.0 | 0.00 | 0.28 | 0.00 | 99 | 1015.0 |
| 20260902070710 | 25 | 320 | 0.0 | 1.6 | 0.00 | 0.28 | 0.00 | 99 | 1015.2 |
| 20260902070208 | 25 | 321 | 0.0 | 1.6 | 0.00 | 0.28 | 0.00 | 99 | 1015.2 |
| 20260902065708 | 25 | 320 | 0.0 | 0.0 | 0.00 | 0.28 | 0.00 | 99 | 1015.3 |
| 20260902065208 | 25 | 315 | 0.0 | 0.0 | 0.00 | 0.28 | 0.00 | 99 | 1015.3 |
| 20260902064707 | 25 | 317 | 0.0 | 0.0 | 0.00 | 0.28 | 0.00 | 99 | 1015.1 |
| 20260902064207 | 25 | 315 | 0.0 | 0.0 | 0.00 | 0.28 | 0.00 | 99 | 1015.4 |
| 20260902064127 | 25 | 322 | 1.6 | 1.6 | 0.00 | 0.28 | 0.00 | 99 | 1015.3 |
| 20260902063747 | 25 | 316 | 0.0 | 1.6 | 0.00 | 0.28 | 0.00 | 99 | 1015.3 |
| 20260902062653 | 25 | 314 | 0.0 | 0.0 | 0.00 | 0.28 | 0.00 | 99 | 1015.3 |
| 20260902062154 | 25 | 315 | 0.0 | 0.0 | 0.00 | 0.28 | 0.00 | 99 | 1015.2 |
| 20260902061652 | 25 | 314 | 0.0 | 0.0 | 0.00 | 0.28 | 0.00 | 99 | 1015.2 |
| 20260902061148 | 25 | 318 | 0.0 | 0.0 | 0.00 | 0.28 | 0.00 | 99 | 1015.0 |
| 20260902061002 | 25 | 320 | 0.0 | 0.0 | 0.00 | 0.28 | 0.00 | 99 | 1015.3 |
| 20260902060235 | 25 | 320 | 0.0 | 0.0 | 0.00 | 0.28 | 0.00 | 99 | 1015.5 |
| 20260902060158 | 25 | 320 | 0.0 | 0.0 | 0.00 | 0.28 | 0.00 | 99 | 1015.3 |
| 20260902055132 | 25 | 320 | 0.0 | 0.0 | 0.00 | 0.28 | 0.00 | 99 | 1015.2 |
| 20260902054635 | 25 | 320 | 0.0 | 0.0 | 0.00 | 0.28 | 0.00 | 99 | 1015.4 |
| 20260902054134 | 25 | 318 | 0.0 | 0.0 | 0.00 | 0.28 | 0.00 | 99 | 1015.4 |
| 20260902053911 | 25 | 318 | 0.0 | 1.6 | 0.00 | 0.28 | 0.00 | 99 | 1015.5 |
| 20260902053105 | 25 | 318 | 0.0 | 1.6 | 0.00 | 0.28 | 0.00 | 99 | 1015.5 |
| 20260902052605 | 25 | 319 | 0.0 | 0.0 | 0.00 | 0.28 | 0.00 | 99 | 1015.5 |
| 20260902052108 | 25 | 318 | 0.0 | 1.6 | 0.00 | 0.28 | 0.00 | 99 | 1015.4 |
| 20260902051607 | 25 | 318 | 0.0 | 1.6 | 0.00 | 0.28 | 0.00 | 99 | 1015.4 |
| 20260902051106 | 25 | 316 | 0.0 | 0.0 | 0.00 | 0.28 | 0.00 | 99 | 1015.2 |
| 20260902050606 | 25 | 315 | 0.0 | 0.0 | 0.00 | 0.28 | 0.00 | 99 | 1015.2 |
| 20260902050123 | 25 | 319 | 0.0 | 0.0 | 0.00 | 0.28 | 0.00 | 99 | 1015.3 |
| 20260902045850 | 25 | 311 | 0.0 | 0.0 | 0.00 | 0.28 | 0.00 | 99 | 1015.5 |
| 20260902045105 | 25 | 319 | 0.0 | 0.0 | 0.00 | 0.28 | 0.00 | 99 | 1015.1 |
| 20260902044606 | 25 | 319 | 0.0 | 0.0 | 0.00 | 0.28 | 0.00 | 99 | 1015.3 |
| 20260902044104 | 25 | 319 | 0.0 | 0.0 | 0.00 | 0.28 | 0.00 | 99 | 1015.3 |
| 20260902043607 | 25 | 319 | 0.0 | 1.6 | 0.00 | 0.28 | 0.00 | 99 | 1015.1 |
| 20260902043105 | 25 | 320 | 0.0 | 1.6 | 0.00 | 0.28 | 0.00 | 99 | 1015.6 |
| 20260902042605 | 25 | 322 | 0.0 | 0.0 | 0.00 | 0.28 | 0.00 | 99 | 1015.3 |
| 20260902042157 | 25 | 320 | 0.0 | 1.6 | 0.00 | 0.28 | 0.00 | 99 | 1015.7 |
| 20260902042123 | 25 | 318 | 0.0 | 1.6 | 0.00 | 0.28 | 0.00 | 99 | 1015.3 |
| 20260902041106 | 25 | 304 | 1.6 | 1.6 | 0.00 | 0.28 | 0.00 | 99 | 1015.5 |
| 20260902040604 | 25 | 319 | 0.0 | 1.6 | 0.00 | 0.28 | 0.00 | 99 | 1015.6 |
| 20260902040118 | 25 | 319 | 0.0 | 0.0 | 0.00 | 0.28 | 0.00 | 99 | 1015.8 |
| 20260902035606 | 25 | 320 | 0.0 | 0.0 | 0.00 | 0.28 | 0.28 | 99 | 1015.9 |
| 20260902035108 | 25 | 321 | 0.0 | 0.0 | 0.00 | 0.28 | 0.28 | 99 | 1015.9 |
| 20260902034606 | 25 | 321 | 0.0 | 0.0 | 0.00 | 0.28 | 0.28 | 99 | 1015.9 |
| 20260902034107 | 25 | 318 | 0.0 | 0.0 | 0.00 | 0.28 | 0.28 | 99 | 1015.9 |
| 20260902033604 | 25 | 318 | 0.0 | 0.0 | 0.00 | 0.28 | 0.28 | 99 | 1016.0 |
| 20260902033109 | 25 | 320 | 0.0 | 0.0 | 0.00 | 0.28 | 0.28 | 99 | 1016.4 |
| 20260902032612 | 25 | 319 | 0.0 | 0.0 | 0.00 | 0.28 | 0.28 | 99 | 1016.3 |
| 20260902032355 | 25 | 316 | 0.0 | 0.0 | 0.00 | 0.28 | 0.28 | 99 | 1016.2 |
| 20260902031847 | 25 | 319 | 0.0 | 0.0 | 0.00 | 0.28 | 0.28 | 98 | 1016.4 |
| 20260902031106 | 25 | 320 | 0.0 | 0.0 | 0.00 | 0.28 | 0.28 | 98 | 1016.4 |
| 20260902030606 | 25 | 320 | 0.0 | 0.0 | 0.00 | 0.28 | 0.28 | 97 | 1016.2 |
| 20260902030114 | 25 | 320 | 0.0 | 0.0 | 0.00 | 0.28 | 0.28 | 97 | 1016.4 |
| 20260902025606 | 26 | 320 | 0.0 | 0.0 | 0.00 | 0.28 | 0.28 | 97 | 1016.3 |
| 20260902025059 | 25 | 320 | 0.0 | 0.0 | 0.00 | 0.28 | 0.28 | 97 | 1016.3 |
| 20260902024559 | 25 | 320 | 0.0 | 0.0 | 0.00 | 0.28 | 0.28 | 97 | 1016.3 |
| 20260902024056 | 25 | 324 | 0.0 | 0.0 | 0.00 | 0.28 | 0.28 | 97 | 1016.2 |
| 20260902023535 | 25 | 319 | 0.0 | 0.0 | 0.00 | 0.28 | 0.28 | 97 | 1016.3 |
| 20260902023037 | 25 | 320 | 0.0 | 0.0 | 0.00 | 0.28 | 0.28 | 97 | 1016.4 |
| 20260902022537 | 26 | 321 | 0.0 | 0.0 | 0.00 | 0.28 | 0.28 | 97 | 1016.5 |
| 20260902022035 | 26 | 320 | 0.0 | 0.0 | 0.00 | 0.28 | 0.28 | 97 | 1016.3 |
| 20260902021818 | 26 | 319 | 0.0 | 0.0 | 0.00 | 0.28 | 0.28 | 97 | 1016.5 |
| 20260902021318 | 26 | 320 | 0.0 | 0.0 | 0.00 | 0.28 | 0.28 | 97 | 1016.5 |
| 20260902020836 | 26 | 318 | 0.0 | 0.0 | 0.00 | 0.28 | 0.28 | 96 | 1016.6 |
| 20260902020033 | 26 | 323 | 0.0 | 0.0 | 0.00 | 0.28 | 0.28 | 96 | 1016.5 |
| 20260902015533 | 26 | 321 | 0.0 | 0.0 | 0.00 | 0.28 | 0.28 | 96 | 1016.2 |
| 20260902015036 | 26 | 321 | 0.0 | 0.0 | 0.00 | 0.28 | 0.28 | 96 | 1016.3 |
| 20260902014533 | 26 | 320 | 0.0 | 1.6 | 0.00 | 0.28 | 0.28 | 95 | 1016.4 |
| 20260902014034 | 26 | 320 | 0.0 | 1.6 | 0.00 | 0.28 | 0.28 | 95 | 1016.2 |
| 20260902013534 | 26 | 336 | 0.0 | 0.0 | 0.00 | 0.28 | 0.28 | 95 | 1016.2 |
| 20260902013035 | 26 | 323 | 0.0 | 0.0 | 0.00 | 0.28 | 0.28 | 94 | 1016.5 |
| 20260902012533 | 26 | 320 | 0.0 | 1.6 | 0.00 | 0.28 | 0.28 | 94 | 1016.2 |
| 20260902012317 | 26 | 320 | 0.0 | 1.6 | 0.00 | 0.28 | 0.28 | 94 | 1016.1 |
| 20260902011533 | 26 | 322 | 0.0 | 1.6 | 0.00 | 0.28 | 0.28 | 93 | 1016.0 |
| 20260902011034 | 26 | 320 | 0.0 | 1.6 | 0.00 | 0.28 | 0.28 | 92 | 1016.2 |
| 20260902010532 | 26 | 329 | 0.0 | 1.6 | 0.00 | 0.28 | 0.28 | 92 | 1016.0 |
| 20260902010033 | 26 | 324 | 0.0 | 3.2 | 0.00 | 0.28 | 0.28 | 92 | 1016.2 |
| 20260902005539 | 26 | 323 | 0.0 | 4.8 | 0.00 | 0.28 | 0.28 | 92 | 1016.1 |
| 20260902005325 | 27 | 333 | 1.6 | 4.8 | 0.00 | 0.28 | 0.28 | 91 | 1016.1 |
| 20260902004533 | 27 | 335 | 0.0 | 6.4 | 0.00 | 0.28 | 0.28 | 92 | 1016.0 |
| 20260902004027 | 27 | 315 | 1.6 | 6.4 | 0.00 | 0.28 | 0.28 | 92 | 1016.1 |
| 20260902003526 | 27 | 324 | 1.6 | 4.8 | 0.00 | 0.28 | 0.28 | 92 | 1015.7 |
| 20260902003022 | 27 | 349 | 4.8 | 4.8 | 0.00 | 0.28 | 0.28 | 92 | 1015.9 |
| 20260902002521 | 27 | 351 | 1.6 | 4.8 | 0.00 | 0.28 | 0.28 | 92 | 1015.8 |
| 20260902002015 | 27 | 321 | 0.0 | 1.6 | 0.00 | 0.28 | 0.28 | 93 | 1016.0 |
| 20260902001757 | 27 | 319 | 0.0 | 1.6 | 0.00 | 0.28 | 0.28 | 92 | 1015.9 |
| 20260902001008 | 27 | 320 | 0.0 | 3.2 | 0.00 | 0.28 | 0.28 | 92 | 1015.9 |
| 20260902000507 | 27 | 341 | 0.0 | 3.2 | 0.00 | 0.28 | 0.28 | 91 | 1015.9 |
| 20260902000009 | 27 | 318 | 0.0 | 3.2 | 0.00 | 0.28 | 0.28 | 90 | 1015.8 |
| 20260901235505 | 27 | 328 | 1.6 | 3.2 | 0.00 | 0.28 | 0.28 | 90 | 1015.7 |
| 20260901235007 | 27 | 327 | 1.6 | 3.2 | 0.00 | 0.28 | 0.28 | 89 | 1015.8 |
| 20260901234504 | 27 | 337 | 1.6 | 3.2 | 0.00 | 0.28 | 0.28 | 89 | 1015.9 |
| 20260901234018 | 27 | 320 | 0.0 | 3.2 | 0.00 | 0.28 | 0.28 | 88 | 1015.9 |
| 20260901233749 | 28 | 323 | 1.6 | 3.2 | 0.00 | 0.28 | 0.28 | 88 | 1016.0 |
| 20260901233008 | 28 | 329 | 1.6 | 6.4 | 0.00 | 0.28 | 0.28 | 88 | 1015.8 |
| 20260901232823 | 28 | 332 | 1.6 | 6.4 | 0.00 | 0.28 | 0.28 | 88 | 1015.8 |
| 20260901232006 | 28 | 333 | 1.6 | 4.8 | 0.00 | 0.28 | 0.28 | 87 | 1015.7 |
| 20260901231813 | 28 | 26 | 1.6 | 6.4 | 0.00 | 0.28 | 0.28 | 87 | 1015.6 |
| 20260901231314 | 28 | 320 | 0.0 | 11.3 | 0.00 | 0.28 | 0.28 | 87 | 1015.5 |
| 20260901230751 | 28 | 338 | 0.0 | 11.3 | 0.00 | 0.28 | 0.28 | 87 | 1015.7 |
| 20260901230011 | 28 | 359 | 3.2 | 6.4 | 0.00 | 0.28 | 0.28 | 86 | 1015.6 |
| 20260901225507 | 29 | 316 | 1.6 | 4.8 | 0.00 | 0.28 | 0.28 | 85 | 1015.5 |
| 20260901225005 | 29 | 328 | 1.6 | 9.7 | 0.00 | 0.28 | 0.28 | 83 | 1015.4 |
| 20260901224506 | 29 | 315 | 0.0 | 9.7 | 0.00 | 0.28 | 0.28 | 83 | 1015.3 |
| 20260901224304 | 30 | 322 | 1.6 | 4.8 | 0.00 | 0.28 | 0.28 | 81 | 1015.4 |
| 20260901223506 | 30 | 321 | 0.0 | 4.8 | 0.00 | 0.28 | 0.28 | 79 | 1015.5 |
| 20260901223006 | 30 | 52 | 3.2 | 4.8 | 0.00 | 0.28 | 0.28 | 78 | 1015.5 |
| 20260901222750 | 30 | 315 | 1.6 | 11.3 | 0.00 | 0.28 | 0.28 | 79 | 1015.3 |
| 20260901222007 | 30 | 1 | 1.6 | 11.3 | 0.00 | 0.28 | 0.28 | 78 | 1015.2 |
| 20260901221507 | 30 | 35 | 4.8 | 6.4 | 0.00 | 0.28 | 0.28 | 76 | 1015.2 |
| 20260901221010 | 31 | 18 | 3.2 | 6.4 | 0.00 | 0.28 | 0.28 | 74 | 1015.1 |
| 20260901220509 | 31 | 316 | 0.0 | 9.7 | 0.00 | 0.28 | 0.28 | 78 | 1015.1 |
| 20260901220006 | 30 | 358 | 1.6 | 9.7 | 0.00 | 0.28 | 0.28 | 78 | 1015.1 |
| 20260901215505 | 30 | 344 | 3.2 | 9.7 | 0.00 | 0.28 | 0.28 | 78 | 1014.7 |
| 20260901215001 | 30 | 279 | 4.8 | 11.3 | 0.00 | 0.28 | 0.28 | 79 | 1015.0 |
| 20260901214501 | 30 | 57 | 3.2 | 11.3 | 0.00 | 0.28 | 0.28 | 78 | 1015.1 |
| 20260901214246 | 30 | 15 | 3.2 | 6.4 | 0.00 | 0.28 | 0.28 | 77 | 1014.8 |
| 20260901213457 | 30 | 21 | 3.2 | 11.3 | 0.00 | 0.28 | 0.28 | 78 | 1014.6 |
| 20260901213228 | 30 | 61 | 3.2 | 11.3 | 0.00 | 0.28 | 0.28 | 78 | 1014.8 |
| 20260901212448 | 31 | 307 | 3.2 | 12.9 | 0.00 | 0.28 | 0.28 | 76 | 1014.8 |
| 20260901211943 | 31 | 16 | 3.2 | 12.9 | 0.00 | 0.28 | 0.28 | 76 | 1015.2 |
| 20260901211441 | 31 | 15 | 1.6 | 11.3 | 0.00 | 0.28 | 0.28 | 76 | 1014.9 |
| 20260901210933 | 31 | 37 | 1.6 | 11.3 | 0.00 | 0.28 | 0.28 | 76 | 1014.9 |
| 20260901210433 | 30 | 241 | 3.2 | 11.3 | 0.00 | 0.28 | 0.28 | 76 | 1014.9 |
| 20260901205932 | 30 | 81 | 3.2 | 11.3 | 0.00 | 0.28 | 0.28 | 78 | 1014.9 |
| 20260901205432 | 30 | 59 | 3.2 | 11.3 | 0.00 | 0.28 | 0.28 | 78 | 1014.9 |
| 20260901204938 | 30 | 320 | 0.0 | 9.7 | 0.00 | 0.28 | 0.28 | 78 | 1014.9 |
| 20260901204435 | 31 | 296 | 1.6 | 6.4 | 0.00 | 0.28 | 0.28 | 77 | 1015.0 |
| 20260901203932 | 30 | 0 | 3.2 | 6.4 | 0.00 | 0.28 | 0.28 | 77 | 1014.9 |
| 20260901203432 | 30 | 276 | 3.2 | 6.4 | 0.00 | 0.28 | 0.28 | 78 | 1015.0 |
| 20260901203218 | 30 | 349 | 1.6 | 6.4 | 0.00 | 0.28 | 0.28 | 80 | 1015.1 |
| 20260901202433 | 30 | 341 | 3.2 | 6.4 | 0.00 | 0.28 | 0.28 | 80 | 1015.1 |
| 20260901201933 | 30 | 350 | 1.6 | 6.4 | 0.00 | 0.28 | 0.28 | 80 | 1015.2 |
| 20260901201435 | 30 | 327 | 1.6 | 4.8 | 0.00 | 0.28 | 0.28 | 81 | 1015.4 |
| 20260901200939 | 30 | 259 | 1.6 | 9.7 | 0.00 | 0.28 | 0.28 | 80 | 1015.3 |
| 20260901200438 | 30 | 35 | 3.2 | 9.7 | 0.00 | 0.28 | 0.28 | 80 | 1015.4 |
| 20260901195936 | 30 | 285 | 3.2 | 6.4 | 0.00 | 0.28 | 0.28 | 79 | 1015.5 |
| 20260901195436 | 30 | 321 | 3.2 | 9.7 | 0.00 | 0.28 | 0.28 | 77 | 1015.5 |
| 20260901194931 | 30 | 11 | 3.2 | 9.7 | 0.00 | 0.28 | 0.28 | 77 | 1015.6 |
| 20260901194718 | 31 | 24 | 1.6 | 9.7 | 0.00 | 0.28 | 0.28 | 77 | 1015.5 |
| 20260901193934 | 31 | 44 | 1.6 | 4.8 | 0.00 | 0.28 | 0.28 | 78 | 1015.6 |
| 20260901193432 | 31 | 285 | 0.0 | 6.4 | 0.00 | 0.28 | 0.28 | 81 | 1015.6 |
| 20260901192932 | 31 | 258 | 1.6 | 9.7 | 0.00 | 0.28 | 0.28 | 76 | 1015.6 |
| 20260901192431 | 31 | 52 | 6.4 | 9.7 | 0.00 | 0.28 | 0.28 | 77 | 1015.8 |
| 20260901191932 | 31 | 226 | 4.8 | 9.7 | 0.00 | 0.28 | 0.28 | 77 | 1015.8 |
| 20260901191436 | 32 | 311 | 3.2 | 9.7 | 0.00 | 0.28 | 0.28 | 77 | 1015.6 |
| 20260901190936 | 32 | 336 | 1.6 | 9.7 | 0.00 | 0.28 | 0.28 | 80 | 1015.6 |
| 20260901190448 | 31 | 312 | 1.6 | 4.8 | 0.00 | 0.28 | 0.28 | 79 | 1015.7 |
| 20260901190222 | 31 | 311 | 0.0 | 6.4 | 0.00 | 0.28 | 0.28 | 81 | 1015.9 |
| 20260901185432 | 31 | 284 | 3.2 | 12.9 | 0.00 | 0.28 | 0.28 | 80 | 1015.8 |
| 20260901184933 | 31 | 357 | 4.8 | 12.9 | 0.00 | 0.28 | 0.28 | 81 | 1015.9 |
| 20260901184433 | 31 | 351 | 6.4 | 11.3 | 0.00 | 0.28 | 0.28 | 80 | 1015.7 |
| 20260901183940 | 31 | 25 | 3.2 | 6.4 | 0.00 | 0.28 | 0.28 | 81 | 1016.0 |
| 20260901183433 | 30 | 267 | 3.2 | 6.4 | 0.00 | 0.28 | 0.28 | 82 | 1015.9 |
| 20260901182933 | 30 | 354 | 3.2 | 6.4 | 0.00 | 0.28 | 0.28 | 82 | 1016.1 |
| 20260901182718 | 30 | 325 | 1.6 | 6.4 | 0.00 | 0.28 | 0.28 | 84 | 1016.6 |
| 20260901181932 | 30 | 326 | 1.6 | 4.8 | 0.00 | 0.28 | 0.28 | 86 | 1016.2 |
| 20260901181431 | 30 | 315 | 1.6 | 4.8 | 0.00 | 0.28 | 0.28 | 86 | 1016.1 |
| 20260901180929 | 29 | 345 | 3.2 | 6.4 | 0.00 | 0.28 | 0.28 | 86 | 1016.3 |
| 20260901180427 | 29 | 355 | 4.8 | 6.4 | 0.00 | 0.28 | 0.28 | 85 | 1016.4 |
| 20260901175922 | 29 | 261 | 3.2 | 4.8 | 0.00 | 0.28 | 0.28 | 87 | 1016.5 |
| 20260901175424 | 29 | 334 | 1.6 | 4.8 | 0.00 | 0.28 | 0.28 | 87 | 1016.4 |
| 20260901174914 | 29 | 331 | 1.6 | 6.4 | 0.00 | 0.28 | 0.28 | 86 | 1016.5 |
| 20260901174427 | 29 | 29 | 1.6 | 6.4 | 0.00 | 0.28 | 0.28 | 87 | 1016.5 |
| 20260901173909 | 29 | 77 | 3.2 | 4.8 | 0.00 | 0.28 | 0.28 | 87 | 1016.7 |
| 20260901173423 | 29 | 39 | 3.2 | 4.8 | 0.00 | 0.28 | 0.28 | 86 | 1016.9 |
| 20260901172910 | 29 | 315 | 1.6 | 3.2 | 0.00 | 0.28 | 0.28 | 87 | 1016.8 |
| 20260901172411 | 28 | 152 | 0.0 | 4.8 | 0.00 | 0.28 | 0.28 | 89 | 1016.9 |
| 20260901171909 | 28 | 32 | 3.2 | 4.8 | 0.00 | 0.28 | 0.28 | 89 | 1016.8 |
| 20260901171407 | 29 | 323 | 1.6 | 6.4 | 0.00 | 0.28 | 0.28 | 90 | 1016.7 |
| 20260901170911 | 28 | 307 | 0.0 | 6.4 | 0.00 | 0.28 | 0.28 | 92 | 1017.0 |
| 20260901170731 | 28 | 11 | 1.6 | 9.7 | 0.05 | 0.28 | 0.28 | 91 | 1017.2 |
| 20260901165907 | 28 | 46 | 6.4 | 9.7 | 0.13 | 0.28 | 0.28 | 92 | 1017.1 |
| 20260901165407 | 28 | 313 | 1.6 | 4.8 | 0.20 | 0.28 | 0.28 | 94 | 1017.2 |
| 20260901164909 | 28 | 0 | 3.2 | 4.8 | 0.28 | 0.28 | 0.28 | 95 | 1017.2 |
| 20260901164411 | 28 | 322 | 1.6 | 3.2 | 0.28 | 0.28 | 0.28 | 97 | 1017.3 |
| 20260901163912 | 27 | 118 | 1.6 | 3.2 | 0.28 | 0.28 | 0.28 | 98 | 1017.1 |
| 20260901163653 | 27 | 321 | 0.0 | 1.6 | 0.28 | 0.28 | 0.28 | 99 | 1017.0 |
| 20260901163158 | 27 | 320 | 0.0 | 1.6 | 0.28 | 0.28 | 0.28 | 99 | 1017.3 |
| 20260901162414 | 27 | 326 | 0.0 | 3.2 | 0.28 | 0.28 | 0.28 | 99 | 1017.5 |
| 20260901161910 | 26 | 305 | 0.0 | 3.2 | 0.28 | 0.28 | 0.28 | 99 | 1017.4 |
| 20260901161411 | 26 | 287 | 1.6 | 3.2 | 0.28 | 0.28 | 0.28 | 99 | 1017.3 |
| 20260901160912 | 27 | 321 | 0.0 | 3.2 | 0.28 | 0.28 | 0.28 | 99 | 1017.7 |
| 20260901160409 | 27 | 314 | 1.6 | 3.2 | 0.23 | 0.23 | 0.23 | 98 | 1017.5 |
| 20260901155911 | 27 | 318 | 0.0 | 4.8 | 0.15 | 0.15 | 0.15 | 98 | 1017.6 |
| 20260901155658 | 27 | 345 | 3.2 | 9.7 | 0.08 | 0.08 | 0.08 | 94 | 1017.6 |
| 20260901154854 | 27 | 326 | 1.6 | 9.7 | 0.00 | 0.00 | 0.00 | 90 | 1017.5 |
| 20260901154356 | 28 | 12 | 6.4 | 9.7 | 0.00 | 0.00 | 0.00 | 89 | 1017.3 |
| 20260901153851 | 30 | 315 | 1.6 | 6.4 | 0.00 | 0.00 | 0.00 | 84 | 1017.5 |
| 20260901153350 | 31 | 15 | 0.0 | 6.4 | 0.00 | 0.00 | 0.00 | 80 | 1017.3 |
| 20260901152848 | 31 | 328 | 1.6 | 9.7 | 0.00 | 0.00 | 0.00 | 78 | 1017.3 |
| 20260901152346 | 31 | 331 | 0.0 | 9.7 | 0.00 | 0.00 | 0.00 | 77 | 1017.0 |
| 20260901151834 | 31 | 4 | 0.0 | 9.7 | 0.00 | 0.00 | 0.00 | 78 | 1017.4 |
| 20260901151345 | 31 | 332 | 3.2 | 4.8 | 0.00 | 0.00 | 0.00 | 80 | 1017.3 |
| 20260901150848 | 31 | 40 | 3.2 | 4.8 | 0.00 | 0.00 | 0.00 | 76 | 1017.6 |
| 20260901150346 | 31 | 316 | 1.6 | 6.4 | 0.00 | 0.00 | 0.00 | 80 | 1017.2 |
| 20260901145832 | 31 | 320 | 1.6 | 9.7 | 0.00 | 0.00 | 0.00 | 82 | 1017.3 |
| 20260901145339 | 31 | 330 | 1.6 | 9.7 | 0.00 | 0.00 | 0.00 | 80 | 1017.1 |
| 20260901144836 | 32 | 25 | 3.2 | 4.8 | 0.00 | 0.00 | 0.00 | 78 | 1017.4 |
| 20260901144334 | 31 | 336 | 0.0 | 4.8 | 0.00 | 0.00 | 0.00 | 80 | 1017.1 |
| 20260901143835 | 31 | 324 | 1.6 | 9.7 | 0.00 | 0.00 | 0.00 | 79 | 1017.1 |
| 20260901143334 | 31 | 333 | 0.0 | 9.7 | 0.00 | 0.00 | 0.00 | 82 | 1017.0 |
| 20260901142835 | 31 | 331 | 1.6 | 4.8 | 0.00 | 0.00 | 0.00 | 83 | 1017.1 |
| 20260901142346 | 30 | 47 | 1.6 | 4.8 | 0.00 | 0.00 | 0.00 | 81 | 1017.2 |
| 20260901142139 | 31 | 335 | 0.0 | 4.8 | 0.00 | 0.00 | 0.00 | 82 | 1017.2 |
| 20260901141346 | 30 | 290 | 0.0 | 4.8 | 0.00 | 0.00 | 0.00 | 85 | 1017.1 |
| 20260901140848 | 30 | 18 | 1.6 | 3.2 | 0.00 | 0.00 | 0.00 | 83 | 1017.1 |
| 20260901140653 | 30 | 339 | 1.6 | 4.8 | 0.00 | 0.00 | 0.00 | 84 | 1017.2 |
| 20260901135835 | 30 | 7 | 1.6 | 6.4 | 0.00 | 0.00 | 0.00 | 86 | 1017.2 |
| 20260901135335 | 30 | 290 | 3.2 | 6.4 | 0.00 | 0.00 | 0.00 | 86 | 1017.0 |
| 20260901134835 | 30 | 332 | 0.0 | 4.8 | 0.00 | 0.00 | 0.00 | 85 | 1016.9 |
| 20260901134335 | 29 | 325 | 1.6 | 4.8 | 0.00 | 0.00 | 0.00 | 86 | 1017.0 |
| 20260901133833 | 30 | 329 | 1.6 | 4.8 | 0.00 | 0.00 | 0.00 | 86 | 1016.9 |
| 20260901133334 | 29 | 325 | 1.6 | 4.8 | 0.00 | 0.00 | 0.00 | 86 | 1016.9 |
| 20260901132832 | 29 | 320 | 3.2 | 4.8 | 0.00 | 0.00 | 0.00 | 86 | 1016.9 |
| 20260901132345 | 29 | 14 | 1.6 | 3.2 | 0.00 | 0.00 | 0.00 | 88 | 1016.6 |
| 20260901131832 | 28 | 341 | 0.0 | 4.8 | 0.00 | 0.00 | 0.00 | 91 | 1016.9 |
| 20260901131620 | 28 | 318 | 1.6 | 4.8 | 0.00 | 0.00 | 0.00 | 93 | 1016.9 |
| 20260901130843 | 28 | 299 | 1.6 | 3.2 | 0.00 | 0.00 | 0.00 | 93 | 1016.8 |
| 20260901130344 | 27 | 0 | 0.0 | 3.2 | 0.00 | 0.00 | 0.00 | 94 | 1016.8 |
| 20260901125834 | 27 | 323 | 0.0 | 3.2 | 0.00 | 0.00 | 0.00 | 94 | 1016.9 |
| 20260901125625 | 27 | 310 | 0.0 | 3.2 | 0.00 | 0.00 | 0.00 | 94 | 1017.0 |
| 20260901124845 | 27 | 318 | 0.0 | 3.2 | 0.00 | 0.00 | 0.00 | 96 | 1016.7 |
| 20260901124334 | 26 | 326 | 1.6 | 3.2 | 0.00 | 0.00 | 0.00 | 99 | 1016.9 |
| 20260901123831 | 26 | 319 | 0.0 | 3.2 | 0.00 | 0.00 | 0.00 | 99 | 1016.7 |
| 20260901123344 | 26 | 324 | 0.0 | 3.2 | 0.00 | 0.00 | 0.00 | 99 | 1016.7 |
| 20260901122827 | 26 | 325 | 0.0 | 1.6 | 0.00 | 0.00 | 0.00 | 99 | 1016.9 |
| 20260901122328 | 26 | 315 | 0.0 | 1.6 | 0.00 | 0.00 | 0.00 | 99 | 1016.7 |
| 20260901121826 | 26 | 318 | 0.0 | 1.6 | 0.00 | 0.00 | 0.00 | 99 | 1016.5 |
| 20260901121325 | 26 | 305 | 0.0 | 0.0 | 0.00 | 0.00 | 0.00 | 99 | 1016.4 |
| 20260901120808 | 25 | 317 | 0.0 | 0.0 | 0.00 | 0.00 | 0.00 | 99 | 1016.4 |
| 20260901120324 | 25 | 317 | 0.0 | 0.0 | 0.00 | 0.00 | 0.00 | 99 | 1016.3 |
| 20260901115806 | 25 | 314 | 0.0 | 0.0 | 0.00 | 0.00 | 0.00 | 99 | 1016.3 |
| 20260901115308 | 24 | 331 | 0.0 | 0.0 | 0.00 | 0.00 | 0.00 | 99 | 1016.3 |
| 20260901114805 | 24 | 320 | 0.0 | 0.0 | 0.00 | 0.00 | 0.00 | 99 | 1016.4 |
| 20260901114307 | 24 | 320 | 0.0 | 0.0 | 0.00 | 0.00 | 0.00 | 99 | 1016.4 |
| 20260901114107 | 24 | 321 | 0.0 | 0.0 | 0.00 | 0.00 | 0.00 | 99 | 1016.1 |
| 20260901113310 | 24 | 312 | 0.0 | 0.0 | 0.00 | 0.00 | 0.00 | 99 | 1016.2 |
| 20260901112808 | 24 | 316 | 0.0 | 0.0 | 0.00 | 0.00 | 0.00 | 99 | 1016.2 |
| 20260901112308 | 24 | 316 | 0.0 | 0.0 | 0.00 | 0.00 | 0.00 | 99 | 1016.0 |
| 20260901111806 | 24 | 316 | 0.0 | 0.0 | 0.00 | 0.00 | 0.00 | 99 | 1015.9 |
| 20260901111309 | 24 | 316 | 0.0 | 0.0 | 0.00 | 0.00 | 0.00 | 99 | 1015.9 |
| 20260901110806 | 23 | 316 | 0.0 | 0.0 | 0.00 | 0.00 | 0.00 | 99 | 1015.9 |
| 20260901110315 | 24 | 317 | 0.0 | 0.0 | 0.00 | 0.00 | 0.00 | 99 | 1015.8 |
| 20260901105925 | 24 | 317 | 0.0 | 0.0 | 0.00 | 0.00 | 0.00 | 99 | 1015.5 |
| 20260901105850 | 24 | 317 | 0.0 | 0.0 | 0.00 | 0.00 | 0.00 | 99 | 1016.0 |
| 20260901105050 | 24 | 316 | 0.0 | 0.0 | 0.00 | 0.00 | 0.00 | 99 | 1015.8 |
| 20260901104719 | 23 | 315 | 0.0 | 0.0 | 0.00 | 0.00 | 0.00 | 99 | 1015.7 |
| 20260901104656 | 23 | 317 | 0.0 | 0.0 | 0.00 | 0.00 | 0.00 | 99 | 1015.8 |
| 20260901103300 | 23 | 320 | 0.0 | 0.0 | 0.00 | 0.00 | 0.00 | 99 | 1015.6 |
| 20260901103115 | 23 | 321 | 0.0 | 0.0 | 0.00 | 0.00 | 0.00 | 99 | 1015.6 |